Location: ?kun?ru
(16.3916°N, 80.8194°E)
Time: 14:28:28
(UTC+00:00)

Ariane H10+ - Pass Details

Date: 19 May 2025
Orbit: 228 x 3761 km, 6.7° (Epoch: 17 June)

Event Time Altitude Azimuth Distance (km) Brightness Sun altitude
Rises 13:43:14 0° 265° (W) 7,729 8.3 -10.1°
Reaches altitude 10° 13:49:33 10° 261° (W) 6,343 7.6 -11.5°
Maximum altitude 14:07:21 50° 192° (SSW) 2,504 4.5 -15.3°
Enters shadow 14:13:57 22° 127° (SE) 2,810 4.3 -16.7°
